Temp
26 26 25 25 24 24 23 23 23 22 21 21 20 20 20 20 20 20 19 19 20 20 20 20 20 20 19 18 18 17 17 17 16 16 16 16 16 16 16 16 15 15 15
27 27 26 26 25 25 24 24 24 23 22 21 21 20 21 20 20 20 20 20 20 20 20 20 20 20 19 19 18 18 17 17 16 15 15 16 16 15 15 15 15 15 14
26 26 26 26 26 26 25 25 24 24 23 22 21 21 21 21 21 20 20 20 21 21 20 20 21 20 19 19 19 18 18 17 16 15 15 15 15 15 15 15 15 15 14
25 26 26 26 26 26 26 26 25 24 24 23 22 21 21 21 21 21 21 21 21 21 20 20 20 20 19 19 18 18 17 17 16 15 14 14 15 14 15 15 14 14 13
25 26 28 27 26 26 26 26 25 25 25 24 23 22 22 21 21 21 21 21 21 21 20 20 19 19 19 19 18 17 17 16 15 15 14 14 14 14 14 14 13 13 13
26 28 28 27 26 26 26 26 26 25 25 24 24 23 22 22 22 22 22 21 21 20 21 20 19 19 19 18 18 17 17 16 16 15 15 14 14 14 13 13 13 13 14
27 27 27 27 26 26 25 26 26 26 26 25 24 24 23 23 23 23 22 21 21 21 20 20 20 19 19 18 17 17 16 16 15 16 15 15 14 14 13 13 13 13 12
27 26 25 26 26 25 25 26 26 26 26 26 25 24 24 23 23 23 22 21 21 20 20 20 19 19 19 18 17 17 16 16 15 15 15 15 14 14 14 14 13 13 13
27 27 27 28 27 25 25 27 26 26 25 26 25 25 24 24 24 23 22 22 21 20 20 20 19 19 19 18 17 17 16 15 15 15 15 14 14 14 14 13 13 12 12
29 29 28 26 25 26 26 25 25 25 26 25 26 26 25 25 24 24 23 22 21 21 20 20 20 19 19 18 17 16 16 15 15 15 15 14 14 14 14 13 12 12 12
27 25 25 23 24 23 22 21 20 20 19 24 25 26 26 25 25 24 24 22 21 21 21 21 20 19 18 17 17 17 16 15 15 15 14 14 14 14 13 13 13 12 11
27 27 26 26 24 22 21 21 21 20 18 20 22 22 22 24 25 24 24 23 22 20 21 21 20 19 18 17 16 16 16 14 14 14 14 14 14 14 13 13 13 12 12
26 25 25 24 23 22 22 21 20 24 20 20 19 22 25 26 26 26 25 23 21 20 19 19 19 19 17 16 15 15 15 14 14 13 14 13 14 13 13 13 12 12 12
25 24 23 23 22 21 20 22 20 19 19 19 19 21 23 21 21 20 19 19 18 17 17 17 18 17 16 16 14 14 14 14 14 13 13 13 13 13 13 13 12 12 11
24 24 24 23 22 21 21 20 24 25 20 20 23 22 20 18 18 18 18 18 18 15 15 15 15 15 16 15 14 14 13 13 14 13 13 14 13 12 13 12 11 11 10
24 25 24 24 23 22 20 22 20 20 19 19 20 20 20 21 19 19 18 18 17 16 15 15 14 14 15 14 14 14 13 13 13 13 14 13 13 13 12 12 11 11 9
22 22 22 22 22 22 21 20 20 19 19 18 18 18 18 18 18 18 16 15 16 17 17 17 14 14 14 14 14 13 13 13 13 14 14 13 13 12 12 10 10 10 9
21 21 21 21 20 18 18 18 18 18 18 18 18 18 18 18 15 14 16 16 15 16 17 16 16 14 13 13 13 13 13 13 13 13 13 13 12 12 11 10 9 9 8
19 19 18 18 17 16 16 16 16 16 17 17 17 16 15 14 15 15 14 17 16 14 15 16 16 13 14 13 13 13 13 13 13 13 13 12 12 11 10 9 9 9 8
18 17 15 15 14 15 15 14 14 13 13 12 13 12 12 13 14 13 13 15 16 15 16 15 14 14 14 13 13 13 13 13 13 12 12 12 11 10 9 9 8 8 8
17 17 15 14 14 14 14 14 14 14 14 13 14 13 12 13 12 13 13 14 15 15 14 13 13 13 14 13 13 13 13 13 12 12 12 11 11 9 9 8 8 8 8
17 17 16 15 15 15 15 14 13 13 12 12 12 12 12 12 13 13 13 14 15 14 13 14 14 14 14 13 13 13 12 12 12 11 11 10 10 9 8 8 8 8 8
17 16 16 16 15 15 14 15 14 14 12 12 12 12 12 13 13 14 15 14 14 14 14 14 14 14 13 13 12 12 11 11 11 11 10 9 9 8 8 8 8 8 7
15 16 16 16 16 15 13 13 13 13 13 13 13 12 13 13 14 14 14 14 15 15 14 14 14 13 13 12 11 11 11 11 10 10 9 9 8 8 7 7 7 7 7
15 14 14 14 14 15 15 15 14 14 14 14 14 14 15 14 14 14 14 14 14 14 14 13 13 12 12 11 11 11 11 10 10 9 9 9 8 7 7 7 7 7 7
13 13 13 14 13 13 13 14 14 14 14 14 14 14 14 14 13 13 13 13 14 14 13 13 12 12 11 11 11 10 10 10 9 9 9 8 8 6 6 6 6 6 6
Height
1488 1494 1499 1504 1508 1514 1519 1524 1530 1535 1539 1544 1547 1550 1554 1557 1560 1562 1564 1566 1568 1569 1571 1573 1574 1575 1576 1577 1578 1579 1580 1581 1582 1582 1582 1582 1583 1583 1583 1583 1583 1583 1583
1476 1484 1489 1495 1500 1503 1508 1515 1522 1526 1532 1536 1540 1543 1547 1551 1553 1556 1558 1560 1562 1563 1565 1567 1569 1570 1571 1572 1573 1574 1575 1577 1579 1580 1579 1579 1579 1579 1579 1580 1579 1579 1578
1465 1471 1478 1483 1487 1492 1498 1505 1512 1518 1523 1528 1532 1535 1539 1543 1546 1549 1552 1554 1556 1558 1559 1561 1562 1564 1565 1567 1568 1569 1571 1572 1574 1575 1577 1576 1576 1576 1576 1575 1574 1572 1573
1453 1459 1464 1469 1475 1481 1488 1495 1502 1508 1514 1519 1523 1527 1531 1535 1539 1542 1545 1547 1548 1551 1553 1555 1556 1557 1558 1561 1563 1565 1565 1566 1566 1569 1570 1571 1572 1573 1572 1572 1571 1569 1568
1443 1448 1451 1458 1465 1471 1477 1483 1491 1497 1503 1509 1514 1518 1522 1526 1530 1533 1536 1539 1541 1543 1545 1547 1549 1550 1552 1554 1555 1557 1559 1560 1561 1562 1564 1565 1565 1564 1564 1567 1565 1565 1564
1432 1436 1442 1448 1453 1458 1465 1471 1479 1485 1492 1498 1502 1507 1511 1514 1517 1522 1527 1529 1532 1534 1536 1539 1541 1542 1544 1545 1547 1549 1551 1554 1554 1556 1557 1560 1560 1560 1559 1561 1561 1560 1559
1422 1428 1434 1439 1443 1448 1455 1462 1466 1472 1481 1485 1491 1495 1498 1502 1506 1511 1515 1519 1522 1524 1527 1531 1533 1533 1536 1537 1540 1541 1543 1546 1548 1550 1551 1553 1556 1557 1556 1555 1556 1557 1558
1414 1421 1427 1431 1434 1438 1443 1449 1454 1460 1466 1473 1478 1483 1489 1492 1495 1499 1505 1511 1511 1514 1519 1522 1524 1527 1530 1533 1535 1536 1536 1536 1541 1544 1546 1548 1549 1549 1550 1551 1551 1551 1551
1408 1412 1415 1419 1424 1429 1433 1437 1442 1448 1455 1461 1469 1474 1477 1481 1484 1490 1497 1501 1501 1502 1508 1511 1514 1517 1520 1523 1526 1528 1530 1531 1534 1536 1539 1542 1543 1544 1544 1545 1546 1547 1548
1398 1400 1407 1412 1417 1420 1424 1429 1433 1439 1444 1451 1456 1462 1466 1471 1475 1480 1487 1491 1492 1495 1498 1501 1504 1505 1509 1512 1516 1522 1525 1525 1528 1528 1530 1533 1535 1538 1540 1540 1541 1543 1545
1396 1399 1402 1406 1410 1416 1422 1427 1434 1439 1440 1438 1441 1448 1453 1458 1463 1467 1473 1479 1480 1479 1482 1487 1490 1497 1501 1505 1509 1511 1517 1523 1524 1523 1525 1526 1528 1530 1533 1534 1535 1537 1537
1389 1393 1397 1401 1405 1409 1413 1419 1424 1431 1437 1435 1435 1437 1439 1444 1450 1453 1458 1465 1468 1473 1473 1477 1481 1490 1499 1499 1503 1506 1510 1518 1520 1519 1520 1519 1522 1523 1527 1528 1531 1531 1531
1383 1387 1391 1394 1397 1401 1404 1408 1416 1418 1426 1423 1425 1423 1428 1432 1436 1438 1441 1449 1457 1459 1468 1474 1481 1484 1482 1490 1499 1505 1508 1512 1514 1517 1517 1515 1516 1519 1520 1522 1526 1527 1527
1379 1380 1384 1387 1391 1393 1396 1399 1399 1410 1416 1411 1409 1411 1412 1418 1418 1420 1427 1439 1454 1457 1459 1462 1470 1478 1483 1484 1496 1499 1504 1505 1508 1511 1513 1511 1513 1514 1515 1518 1521 1520 1521
1375 1377 1379 1380 1382 1384 1388 1390 1390 1394 1401 1399 1396 1397 1401 1404 1402 1406 1419 1418 1431 1438 1447 1457 1442 1465 1472 1482 1492 1494 1498 1500 1502 1505 1505 1505 1508 1510 1511 1514 1516 1515 1516
1372 1372 1373 1375 1377 1378 1379 1380 1381 1384 1387 1388 1388 1389 1392 1393 1398 1397 1405 1412 1416 1429 1444 1444 1449 1470 1469 1471 1480 1484 1490 1492 1498 1500 1501 1502 1505 1504 1505 1509 1510 1510 1512
1366 1367 1367 1367 1370 1370 1372 1373 1374 1376 1376 1376 1377 1379 1384 1386 1390 1388 1395 1407 1422 1420 1423 1437 1449 1459 1464 1473 1476 1479 1484 1488 1492 1492 1496 1497 1501 1500 1502 1503 1503 1503 1506
1362 1362 1361 1360 1362 1364 1366 1367 1367 1368 1369 1369 1366 1369 1374 1378 1382 1389 1395 1401 1406 1401 1408 1424 1434 1450 1459 1466 1470 1474 1478 1484 1486 1487 1490 1494 1494 1495 1498 1497 1498 1501 1502
1362 1361 1361 1358 1358 1360 1362 1365 1364 1365 1366 1364 1367 1365 1365 1373 1376 1383 1389 1391 1395 1396 1409 1419 1427 1444 1452 1459 1464 1469 1473 1479 1481 1482 1487 1489 1490 1493 1492 1492 1491 1495 1496
1364 1363 1361 1363 1362 1359 1363 1365 1364 1366 1365 1370 1374 1386 1359 1372 1376 1377 1383 1385 1387 1397 1403 1416 1425 1439 1441 1452 1460 1465 1469 1472 1474 1478 1482 1482 1486 1488 1488 1487 1487 1490 1491
1368 1365 1365 1368 1364 1363 1367 1369 1369 1370 1370 1373 1374 1383 1382 1378 1380 1380 1381 1386 1388 1394 1406 1417 1425 1431 1438 1448 1454 1459 1464 1465 1470 1474 1476 1481 1480 1479 1481 1484 1486 1486 1488
1370 1369 1370 1368 1363 1367 1372 1371 1373 1371 1372 1374 1374 1376 1382 1385 1387 1389 1386 1392 1388 1401 1412 1418 1425 1429 1436 1443 1448 1454 1458 1461 1466 1469 1472 1473 1474 1473 1476 1480 1482 1482 1484
1374 1373 1369 1366 1367 1371 1371 1372 1372 1370 1374 1375 1372 1377 1385 1386 1387 1390 1387 1391 1400 1407 1412 1419 1423 1428 1434 1438 1444 1449 1455 1459 1462 1463 1464 1464 1467 1469 1473 1477 1478 1480 1481
1378 1377 1369 1371 1373 1372 1371 1371 1370 1371 1375 1377 1378 1384 1387 1389 1390 1393 1397 1400 1404 1410 1415 1418 1422 1430 1432 1437 1441 1447 1453 1455 1455 1455 1458 1459 1462 1466 1470 1471 1473 1476 1481
1382 1377 1376 1379 1378 1376 1374 1374 1377 1381 1379 1380 1382 1387 1389 1390 1392 1397 1399 1402 1406 1413 1414 1418 1426 1431 1434 1436 1441 1446 1448 1448 1446 1448 1451 1454 1459 1464 1465 1467 1469 1474 1480
1381 1380 1382 1381 1381 1381 1380 1380 1381 1382 1383 1384 1385 1388 1389 1392 1395 1398 1401 1405 1408 1412 1416 1421 1425 1428 1433 1436 1439 1441 1443 1443 1443 1446 1447 1451 1457 1459 1459 1463 1466 1471 1476
Wind_Speed
47 47 45 47 47 46 45 40 35 33 31 31 31 29 29 27 26 24 22 20 21 20 19 19 18 17 17 17 15 15 14 13 12 10 10 10 11 11 11 12 13 13 14
52 50 48 46 47 47 46 42 38 35 33 31 32 33 33 31 30 27 26 25 25 23 22 21 20 21 20 18 18 17 18 18 14 12 11 12 12 14 14 14 14 13 14
53 55 54 53 51 50 47 45 41 38 36 35 33 36 35 36 34 31 29 27 27 26 23 22 22 23 23 23 20 18 17 17 16 13 11 13 15 15 15 15 17 18 19
47 50 53 54 54 52 49 46 44 41 39 37 37 35 36 38 38 35 33 31 30 29 27 24 24 24 24 25 24 21 19 19 19 17 14 12 14 14 16 18 18 22 16
46 47 47 48 50 50 49 46 44 44 42 40 40 38 38 39 41 40 38 36 34 32 30 29 28 26 25 25 26 26 23 21 19 18 15 14 14 14 15 13 15 16 20
48 46 45 45 47 48 47 46 44 45 44 44 44 42 41 43 44 43 41 41 38 35 34 32 31 29 28 28 26 27 27 25 24 19 17 16 16 16 13 11 14 16 13
47 46 46 45 46 44 45 44 45 45 45 47 46 46 46 45 47 46 45 43 42 40 38 35 34 32 30 31 27 27 28 28 25 21 21 19 17 15 14 14 14 14 16
45 45 45 46 46 45 44 44 46 46 47 49 49 48 48 47 48 48 46 44 46 44 41 38 36 33 30 31 28 29 30 30 28 22 21 19 17 17 15 16 18 19 16
42 44 45 45 46 47 46 45 47 47 48 50 50 49 49 49 49 47 45 46 49 48 44 42 39 36 32 30 30 31 31 29 26 21 19 19 18 16 16 16 16 11 11
39 41 42 44 45 46 45 47 46 47 47 48 50 51 51 49 49 48 44 43 48 50 49 45 42 39 33 30 30 31 32 30 26 22 21 19 18 16 16 16 13 10 11
30 32 36 39 39 40 41 42 41 42 41 48 51 51 51 51 50 49 47 45 48 51 52 48 46 40 37 31 30 32 33 29 25 21 21 20 18 16 16 14 13 12 10
25 27 29 31 33 33 36 37 36 37 40 45 46 49 48 53 50 49 48 44 47 48 50 48 44 35 36 30 29 29 27 25 24 23 20 19 18 16 16 13 13 12 13
14 17 21 23 25 28 30 32 35 40 44 44 40 45 46 48 45 47 50 46 43 47 41 40 37 34 34 29 26 24 24 26 26 23 19 17 16 15 16 13 13 11 12
11 12 14 17 21 25 26 27 26 27 45 46 40 42 44 43 43 47 36 31 28 32 37 36 37 29 26 19 28 26 27 29 28 24 18 16 16 17 16 14 13 12 11
4 4 8 13 17 22 26 28 35 44 50 45 45 43 43 42 43 35 30 30 36 38 25 9 30 26 25 30 28 26 29 30 27 23 21 18 18 18 15 15 14 12 11
3 5 7 9 13 18 25 28 33 37 40 41 38 39 45 45 45 34 29 34 35 33 14 8 30 25 25 28 29 29 32 27 25 23 19 18 19 17 15 16 14 12 9
2 4 7 9 15 20 24 28 33 36 39 37 36 39 41 41 39 34 32 34 21 14 4 10 26 29 28 28 28 29 26 26 24 20 18 18 18 15 15 13 13 11 9
5 6 7 7 9 13 18 24 29 32 33 38 48 41 41 40 37 33 24 15 19 16 27 28 37 34 33 30 30 27 25 23 22 20 18 18 15 15 14 11 10 8 8
5 4 3 4 4 5 9 16 19 24 27 34 36 38 39 31 26 25 26 27 31 33 33 35 31 35 27 29 28 27 24 24 22 19 19 16 14 14 12 10 8 10 8
8 9 5 2 2 1 4 10 12 12 13 14 14 5 31 26 29 30 30 26 29 30 29 31 32 30 25 30 30 26 25 22 20 20 18 15 16 14 10 10 9 7 6
4 7 7 4 5 4 7 7 13 11 9 10 12 7 23 18 28 27 32 31 26 23 32 35 35 31 29 29 26 24 21 21 20 17 15 18 17 12 12 10 9 6 6
6 4 4 4 4 5 6 4 3 5 5 15 23 28 24 26 24 26 27 22 18 24 28 27 27 25 25 25 23 22 21 19 17 16 17 16 15 13 11 12 9 7 7
13 11 12 7 2 3 3 2 2 4 7 9 8 18 26 27 28 26 20 22 24 24 24 23 20 21 21 20 21 20 16 13 14 17 16 15 14 12 13 13 10 8 9
6 9 15 15 13 11 10 7 6 7 7 9 17 21 21 20 20 20 23 23 22 20 18 17 18 20 22 25 21 14 10 10 11 14 15 14 12 15 14 12 10 9 11
11 15 14 9 8 7 8 10 10 10 10 9 10 11 13 15 16 20 21 19 20 18 17 18 20 22 22 21 16 11 8 7 10 12 14 14 15 17 14 11 10 10 13
10 11 9 8 10 10 8 5 2 1 1 1 4 4 6 9 15 18 18 18 19 18 18 20 23 24 23 19 16 13 5 5 6 9 11 13 16 16 13 12 11 12 14
Wind_Direction
234 235 234 236 235 235 237 237 236 237 234 234 234 233 231 233 234 235 235 234 233 232 233 236 236 239 243 250 249 245 244 243 239 249 256 254 255 243 249 261 266 268 265
233 233 233 235 238 238 237 237 234 234 233 233 234 233 231 231 233 234 234 233 231 230 231 234 237 238 239 243 247 251 248 248 245 254 255 267 251 247 261 265 271 274 275
236 235 235 236 237 239 239 237 236 234 234 232 234 232 230 228 231 233 234 233 233 231 231 234 238 240 240 240 244 250 248 246 248 246 254 252 253 259 265 274 278 279 284
234 235 235 236 238 239 240 238 237 234 233 234 234 236 231 229 230 234 233 231 230 231 232 234 237 240 241 242 243 246 246 245 246 248 241 243 249 253 267 276 281 293 286
233 236 239 239 238 239 240 239 236 234 232 233 235 236 235 232 230 232 231 232 232 233 234 236 236 240 243 243 240 240 241 240 240 239 240 242 239 244 261 275 278 286 291
234 238 239 239 238 237 237 237 236 234 232 231 232 234 236 233 231 231 232 233 234 234 236 237 239 242 242 242 241 241 241 240 243 239 240 241 242 262 260 271 280 285 288
236 237 237 239 239 239 237 236 235 233 231 231 231 232 235 236 234 232 231 234 236 237 238 238 240 243 244 243 242 243 239 239 241 249 247 251 249 262 262 268 276 282 287
237 236 237 237 239 239 235 234 234 231 229 230 231 231 235 238 238 235 234 235 240 240 241 243 244 247 247 247 243 238 238 236 232 240 247 251 250 251 264 270 277 288 288
237 239 239 240 240 239 238 235 232 230 230 230 234 236 236 238 241 241 238 237 241 243 243 244 243 246 245 244 237 237 238 236 233 232 236 237 242 249 259 268 277 274 284
240 245 245 244 242 242 243 241 235 233 232 232 233 237 239 241 244 245 243 242 243 246 246 244 243 241 242 236 228 231 237 232 226 223 221 230 233 247 259 265 265 258 275
247 247 248 249 247 247 246 243 242 241 235 232 233 236 240 243 244 246 244 242 243 244 245 243 241 237 237 227 223 228 234 236 223 220 218 224 230 245 252 257 247 257 254
244 251 255 257 253 245 243 244 243 245 243 241 238 238 239 241 243 248 247 244 245 247 249 245 241 235 238 222 220 226 228 225 220 210 218 221 228 242 247 236 246 258 269
240 242 243 246 249 245 245 240 243 240 243 240 240 240 246 248 249 249 249 246 240 243 249 249 246 230 219 208 219 223 218 211 211 214 224 218 230 230 228 230 246 264 278
228 237 241 240 242 242 236 239 227 240 246 238 231 241 241 242 243 246 238 243 244 239 241 237 235 223 204 234 218 212 215 216 217 221 220 218 226 227 221 232 246 262 275
147 200 235 243 241 241 238 236 237 235 240 240 246 239 232 234 234 239 240 213 209 212 212 239 188 182 188 215 213 215 216 214 217 220 214 220 228 220 223 238 247 262 274
249 253 253 249 248 235 239 245 243 240 241 245 250 249 240 248 245 237 239 209 193 175 171 214 271 243 230 212 214 212 216 215 216 213 219 224 220 217 227 240 248 260 262
287 272 263 258 260 255 251 249 244 243 245 247 250 247 241 237 232 225 192 170 162 190 219 249 216 236 214 210 213 208 207 206 211 211 212 213 220 224 232 230 243 256 263
338 324 308 283 257 254 258 259 257 255 248 242 231 232 233 222 176 156 173 192 195 216 223 201 200 206 202 207 204 203 204 209 204 204 210 214 216 226 228 220 233 242 255
22 12 314 279 258 240 253 247 242 241 239 230 216 191 170 160 166 179 193 207 203 195 197 194 199 196 203 205 205 208 208 205 204 206 207 214 228 229 224 216 216 238 244
70 52 42 92 79 250 268 235 195 168 147 124 136 259 176 175 181 183 191 194 182 188 189 194 185 197 199 203 206 203 197 202 203 202 211 225 234 228 212 211 204 214 249
53 55 49 154 139 155 228 215 179 201 253 229 238 248 237 230 203 189 185 181 175 182 186 189 191 191 192 198 197 196 199 197 199 209 228 235 229 213 212 204 203 214 234
52 57 68 125 101 141 154 131 153 166 228 224 216 221 217 227 219 209 191 191 160 177 180 181 183 184 188 193 194 197 193 197 210 226 230 222 225 215 203 205 208 216 232
59 69 75 74 74 264 268 272 277 266 255 242 192 192 199 208 209 193 162 156 162 167 170 174 178 184 186 190 190 186 191 212 232 229 219 216 214 209 204 206 212 226 237
65 70 75 74 68 65 66 67 68 100 137 158 164 177 187 188 171 158 164 163 163 166 171 173 177 189 186 178 176 183 210 222 231 216 211 210 210 212 204 204 216 229 233
71 69 73 75 85 86 84 77 79 74 94 118 139 163 162 159 161 170 171 168 169 174 172 177 185 184 181 177 185 196 214 244 218 215 214 216 211 211 205 211 217 226 231
81 85 84 84 65 66 61 77 63 93 6 185 196 192 187 190 183 186 187 186 184 182 181 183 184 180 183 192 195 193 221 213 193 204 203 206 209 209 210 218 222 227 231